[[{"header":{"parameterUnit":"m.s-1","parameterCategory":1,"la1":30.2991,"la2":30.254,"lo1":-89.0895,"lo2":-89.0444,"dy":0.0017,"dx":0.0017,"nx":28,"ny":28,"refTime":"2025-02-03T09:00:00:Z","depth":0,"parameterNumber":2,"parameterNumberName":"U-component_of_WINDS"},"data":[0,0,0,0,0,0,0,0,0,0,0,0,0,0,0,0,0,0,0,0,0,0,0,0,0,0,0,0,0,0,0,0,0,0,0,0,0,0,0,0,0,0,0,0,0,0,0,0,0,0,0,0,0,0,0,0,0,0,-1.7511,-1.7513,0,-1.7647,-1.7648,-1.765,-1.7685,-1.7684,-1.7683,-1.7682,-1.7821,-1.7826,-1.783,0,0,0,0,0,0,0,0,0,0,0,0,0,-1.7283,-1.7287,-1.7511,-1.7513,-1.7514,-1.7647,-1.7649,-1.765,-1.7685,-1.7684,-1.7683,-1.7682,-1.782,-1.7825,-1.7831,0,0,0,0,0,0,0,0,0,0,0,0,0,-1.7397,-1.7288,-1.7511,-1.7547,-1.7552,-1.7646,-1.7649,-1.7651,-1.7685,-1.7684,-1.7682,-1.7681,-1.7818,-1.7825,-1.7831,-1.7899,0,0,-1.7852,-1.7855,0,0,0,0,0,0,0,0,-1.739,-1.7405,-1.754,-1.7545,-1.755,-1.7648,-1.7619,-1.7734,-1.7685,-1.7635,-1.7682,-1.7681,-1.7765,-1.7776,-1.7804,-1.7905,-1.7911,-1.7853,-1.7857,-1.786,-1.7861,0,0,0,0,0,0,0,-1.7382,-1.7399,-1.7565,-1.7542,-1.7549,-1.7558,-1.7573,-1.7641,-1.7705,-1.7639,-1.7642,-1.7657,-1.7767,-1.7797,-1.7807,-1.7913,-1.7852,-1.7858,-1.7863,-1.7865,-1.8079,-1.808,0,0,0,0,0,0,-1.7368,-1.7393,-1.756,-1.7569,-1.7466,-1.7563,-1.7579,-1.7618,-1.7704,-1.7716,-1.7658,-1.7658,-1.7786,-1.78,-1.7812,-1.7898,-1.7859,-1.7866,-1.787,-1.8077,-1.8079,-1.8081,0,0,0,0,0,0,-1.7363,-1.7383,-1.7555,-1.7482,-1.7504,-1.7568,-1.7611,-1.7621,-1.7651,-1.7719,-1.7731,-1.7677,-1.7786,-1.7803,-1.7877,-1.7903,-1.7869,-1.7875,-1.8075,-1.8078,-1.808,-1.8069,0,0,0,0,0,0,-1.7356,-1.738,-1.7406,-1.7482,-1.7508,-1.7617,-1.7612,-1.7625,-1.7663,-1.7664,-1.774,-1.7751,-1.7786,-1.7867,-1.7884,-1.7912,-1.788,-1.8073,-1.8076,-1.8079,-1.8067,-1.807,-1.8073,0,0,0,0,0,-1.7348,-1.7397,-1.7407,-1.7427,-1.7541,-1.7618,-1.7633,-1.7672,-1.7665,-1.7691,-1.7736,-1.7749,-1.7898,-1.7874,-1.7894,-1.7924,-1.8072,-1.8075,-1.8079,-1.8066,-1.807,-1.8073,0,0,0,0,0,0,-1.7322,-1.7408,-1.742,-1.7495,-1.7549,-1.7624,-1.7658,-1.7675,-1.7733,-1.7732,-1.7778,-1.7795,-1.7867,-1.7903,-1.7875,-1.7995,-1.7985,-1.7993,-1.7968,-1.7973,-1.7976,-1.7965,-1.7886,0,0,0,0,0,-1.7325,-1.738,-1.7452,-1.7511,-1.7538,-1.7594,-1.7629,-1.7655,-1.7713,-1.7736,-1.7785,-1.7841,-1.7901,-1.7939,-1.7997,-1.8073,-1.8091,-1.8104,-1.8107,-1.8109,-1.8115,-1.8159,-1.8166,-1.8093,-1.8093,-1.8093,0,0,-1.7332,-1.7385,-1.7417,-1.7508,-1.7553,-1.7609,-1.7613,-1.7672,-1.7715,-1.7745,-1.7818,-1.7857,-1.7922,-1.7998,-1.8034,-1.8031,-1.814,-1.8114,-1.8115,-1.812,-1.8164,-1.8171,-1.8177,-1.8095,-1.8095,-1.8094,0,0,-1.7373,-1.7419,-1.7474,-1.7519,-1.7588,-1.7625,-1.7638,-1.7712,-1.7738,-1.7813,-1.7837,-1.7889,-1.7991,-1.8037,-1.8074,-1.8136,-1.8151,-1.8154,-1.817,-1.8212,-1.8218,-1.8224,-1.8246,-1.8254,-1.8159,-1.8159,-1.8159,0,-1.7372,-1.7458,-1.75,-1.7559,-1.7599,-1.7629,-1.7686,-1.7728,-1.7812,-1.784,-1.7835,-1.7964,-1.8011,-1.8098,-1.8114,-1.8142,-1.816,-1.8144,-1.8214,-1.822,-1.8225,-1.8248,-1.8256,-1.8159,-1.8159,-1.8159,-1.8159,0,-1.7455,-1.7514,-1.7551,-1.7632,-1.7676,-1.7733,-1.7785,-1.7824,-1.7847,-1.7885,-1.7962,-1.8019,-1.809,-1.8113,-1.8135,-1.8205,-1.8201,-1.8205,-1.8195,-1.8232,-1.8253,-1.8262,-1.8159,-1.8159,-1.8159,-1.8159,0,0,-1.7481,-1.7587,-1.7599,-1.7637,-1.7716,-1.7763,-1.7823,-1.7894,-1.7927,-1.7985,-1.8037,-1.8123,-1.8128,-1.817,-1.8198,-1.8236,-1.8282,-1.8235,-1.8237,-1.8242,-1.8363,-1.836,-1.8369,-1.8293,-1.8295,-1.8296,-1.8358,0,-1.7532,-1.7639,-1.768,-1.7768,-1.7824,-1.7856,-1.7908,-1.7963,-1.8001,-1.8054,-1.8096,-1.8157,-1.8158,-1.8184,-1.8223,-1.8268,-1.8307,-1.8264,-1.8342,-1.8344,-1.8324,-1.838,-1.8376,-1.8431,-1.8367,-1.8368,-1.8369,0,-1.7605,-1.7665,-1.7758,-1.7833,-1.7858,-1.7904,-1.7973,-1.8024,-1.8087,-1.8112,-1.816,-1.8187,-1.8252,-1.8239,-1.833,-1.83,-1.8335,-1.8362,-1.8366,-1.8374,-1.8358,-1.8389,-1.8449,-1.8457,-1.8383,-1.8382,-1.8381,0,-1.7616,-1.7719,-1.7789,-1.7821,-1.7909,-1.7941,-1.7979,-1.8041,-1.8082,-1.8142,-1.8169,-1.8236,-1.8273,-1.8325,-1.8369,-1.8356,-1.8457,-1.8448,-1.848,-1.8478,-1.8498,-1.8496,-1.8564,-1.8521,-1.8521,-1.8521,-1.8521,0,-1.7668,-1.7724,-1.7795,-1.7838,-1.7902,-1.7949,-1.8012,-1.8053,-1.8108,-1.816,-1.8192,-1.824,-1.8296,-1.8352,-1.8388,-1.8458,-1.8474,-1.8497,-1.8505,-1.8494,-1.8491,-1.8516,-1.8514,-1.8523,-1.8523,-1.8522,-1.8522,0,-1.7689,-1.7739,-1.7818,-1.7895,-1.7916,-1.796,-1.8027,-1.8071,-1.8111,-1.8177,-1.8195,-1.8258,-1.8325,-1.8375,-1.8463,-1.8487,-1.8562,-1.8571,-1.854,-1.8545,-1.8574,-1.857,-1.866,-1.8674,-1.8622,-1.8622,-1.8623,0,-1.7719,-1.7763,-1.7846,-1.7884,-1.7922,-1.7981,-1.8023,-1.8072,-1.8114,-1.8192,-1.8226,-1.8296,-1.8354,-1.8462,-1.8515,-1.8583,-1.8594,-1.8621,-1.8604,-1.8591,-1.8594,-1.8591,-1.8596,-1.8622,-1.8623,-1.8623,-1.8623,0,-1.7767,-1.779,-1.7849,-1.7917,-1.7966,-1.8022,-1.8079,-1.8108,-1.8167,-1.8213,-1.8283,-1.8328,-1.8419,-1.8488,-1.8561,-1.8602,-1.8623,-1.8629,-1.864,-1.8627,-1.8608,-1.8619,-1.8546,-1.8626,-1.8626,-1.8625,-1.8625,-1.8625,-1.7794,-1.7835,-1.79,-1.7965,-1.8014,-1.8066,-1.8111,-1.8158,-1.8217,-1.8294,-1.832,-1.8392,-1.8457,-1.8558,-1.8599,-1.8657,-1.8657,-1.8672,-1.8676,-1.8679,-1.8679,-1.8599,-1.8671,-1.8671,-1.8671,-1.8671,-1.8671,0,-1.7843,-1.7887,-1.7947,-1.8025,-1.8077,-1.8093,-1.8157,-1.82,-1.8263,-1.8322,-1.8379,-1.846,-1.8528,-1.8589,-1.866,-1.8695,-1.8706,-1.8712,-1.8709,-1.8719,-1.8675,-1.8658,-1.8701,-1.8701,-1.8701,-1.8701,-1.8701,-1.8701,-1.7875,-1.7946,-1.7977,-1.8073,-1.8117,-1.8188,-1.8224,-1.8273,-1.832,-1.8409,-1.8466,-1.8505,-1.8565,-1.8641,-1.8705,-1.8721,-1.8746,-1.8749,-1.8767,-1.8725,-1.8721,-1.8718,-1.8702,-1.8754,-1.8754,-1.8806,-1.8807,-1.8807]},{"header":{"parameterUnit":"m.s-1","parameterCategory":1,"la1":30.2991,"la2":30.254,"lo1":-89.0895,"lo2":-89.0444,"dy":0.0017,"dx":0.0017,"nx":28,"ny":28,"refTime":"2025-02-03T09:00:00:Z","depth":0,"parameterNumber":3,"parameterNumberName":"V-component_of_WINDS"},"data":[0,0,0,0,0,0,0,0,0,0,0,0,0,0,0,0,0,0,0,0,0,0,0,0,0,0,0,0,0,0,0,0,0,0,0,0,0,0,0,0,0,0,0,0,0,0,0,0,0,0,0,0,0,0,0,0,0,0,0.4621,0.4622,0,0.4639,0.4639,0.464,0.4649,0.4649,0.4649,0.4649,0.4667,0.4668,0.4668,0,0,0,0,0,0,0,0,0,0,0,0,0,0.4597,0.4597,0.4621,0.4622,0.4622,0.4639,0.4639,0.464,0.4649,0.4649,0.4649,0.4649,0.4667,0.4668,0.4668,0,0,0,0,0,0,0,0,0,0,0,0,0,0.461,0.4597,0.4621,0.4629,0.463,0.4639,0.4639,0.464,0.4649,0.4649,0.4649,0.4649,0.4667,0.4667,0.4668,0.4671,0,0,0.467,0.467,0,0,0,0,0,0,0,0,0.4609,0.4611,0.4628,0.4628,0.4629,0.4642,0.4637,0.465,0.4649,0.4642,0.4649,0.4649,0.4659,0.466,0.4663,0.4672,0.4673,0.467,0.4671,0.4671,0.4671,0,0,0,0,0,0,0,0.4609,0.461,0.4628,0.4628,0.4629,0.4632,0.4633,0.464,0.465,0.4642,0.4643,0.4645,0.4659,0.4663,0.4664,0.4673,0.467,0.4671,0.4671,0.4672,0.4687,0.4687,0,0,0,0,0,0,0.4606,0.461,0.4628,0.4629,0.4619,0.4632,0.4634,0.4638,0.465,0.4652,0.4645,0.4646,0.4661,0.4663,0.4664,0.467,0.4671,0.4672,0.4672,0.4687,0.4687,0.4687,0,0,0,0,0,0,0.4606,0.4608,0.4627,0.462,0.4622,0.4632,0.4637,0.4638,0.4642,0.4652,0.4654,0.4647,0.4662,0.4664,0.467,0.4671,0.4672,0.4672,0.4687,0.4687,0.4687,0.4681,0,0,0,0,0,0,0.4605,0.4608,0.4609,0.4619,0.4623,0.4632,0.4637,0.4639,0.4643,0.4644,0.4654,0.4656,0.4662,0.4669,0.4671,0.4672,0.4673,0.4687,0.4687,0.4687,0.4681,0.4681,0.468,0,0,0,0,0,0.4604,0.4606,0.4609,0.4611,0.4624,0.4632,0.4634,0.4641,0.4643,0.4644,0.4651,0.4655,0.467,0.467,0.4672,0.4673,0.4687,0.4687,0.4687,0.4681,0.4681,0.468,0,0,0,0,0,0,0.4594,0.4607,0.4611,0.4616,0.4623,0.4634,0.4636,0.464,0.4647,0.4647,0.4656,0.4658,0.4664,0.4669,0.4668,0.4677,0.4679,0.468,0.4674,0.4674,0.4673,0.4672,0.4674,0,0,0,0,0,0.4593,0.4598,0.4609,0.4613,0.4616,0.4625,0.4629,0.4634,0.4642,0.4645,0.4652,0.4659,0.4666,0.467,0.4676,0.4682,0.4685,0.4684,0.4683,0.4683,0.4683,0.4688,0.4688,0.4688,0.4688,0.4688,0,0,0.459,0.4597,0.46,0.4611,0.4617,0.4623,0.4628,0.4633,0.4638,0.4646,0.4653,0.4658,0.4667,0.4673,0.4676,0.4678,0.4684,0.4683,0.4683,0.4683,0.4688,0.4688,0.4688,0.4688,0.4688,0.4688,0,0,0.4587,0.4593,0.4597,0.4603,0.4613,0.4619,0.462,0.4631,0.4635,0.4642,0.4649,0.4654,0.4665,0.4671,0.4676,0.4677,0.4682,0.4679,0.4677,0.4681,0.4681,0.4681,0.4683,0.4683,0.4679,0.4679,0.4679,0,0.4582,0.4591,0.4599,0.4604,0.4609,0.4617,0.4622,0.4628,0.4638,0.4642,0.4643,0.4658,0.4664,0.4673,0.4673,0.4676,0.4678,0.4678,0.4681,0.4681,0.4681,0.4682,0.4683,0.4679,0.4679,0.4679,0.4679,0,0.4584,0.459,0.4593,0.4604,0.4609,0.4614,0.4623,0.4628,0.4633,0.4639,0.4647,0.4655,0.4664,0.4666,0.4671,0.4676,0.4676,0.4679,0.4681,0.4681,0.4682,0.4683,0.4679,0.4679,0.4679,0.4679,0,0,0.4575,0.4591,0.4592,0.4598,0.4609,0.4614,0.462,0.4629,0.4633,0.4641,0.4647,0.4656,0.4659,0.4665,0.467,0.4674,0.4676,0.4676,0.4677,0.4677,0.4683,0.4681,0.4681,0.4679,0.4679,0.4679,0.4682,0,0.4574,0.4585,0.4593,0.4601,0.4608,0.4616,0.4621,0.4629,0.4636,0.4642,0.4649,0.4656,0.4659,0.4663,0.4667,0.4675,0.4677,0.4674,0.4684,0.4685,0.4682,0.4682,0.468,0.4682,0.4683,0.4683,0.4683,0,0.4575,0.4583,0.4592,0.4604,0.4607,0.4611,0.4621,0.4627,0.4637,0.4641,0.4648,0.4654,0.4661,0.4663,0.4673,0.4671,0.4676,0.4681,0.4681,0.4682,0.4684,0.4684,0.4683,0.4684,0.4684,0.4684,0.4684,0,0.4568,0.4581,0.4588,0.4593,0.4607,0.461,0.4616,0.4626,0.4631,0.464,0.4644,0.4653,0.4658,0.4665,0.4674,0.4674,0.4684,0.4686,0.4688,0.4688,0.469,0.4689,0.469,0.4692,0.4692,0.4692,0.4692,0,0.4567,0.4572,0.4586,0.459,0.4597,0.4606,0.4613,0.4619,0.4628,0.4634,0.4642,0.4648,0.4659,0.4666,0.4673,0.4681,0.4683,0.4687,0.4689,0.4687,0.4686,0.469,0.469,0.4692,0.4692,0.4692,0.4692,0,0.456,0.457,0.4578,0.4591,0.4595,0.4599,0.4611,0.4616,0.4623,0.4631,0.4633,0.4645,0.4654,0.4663,0.4675,0.468,0.4688,0.469,0.4685,0.4686,0.4688,0.4688,0.4692,0.4693,0.4693,0.4693,0.4693,0,0.4559,0.4563,0.4577,0.4582,0.4588,0.4596,0.4602,0.4612,0.4618,0.463,0.4633,0.4643,0.4652,0.4666,0.4676,0.4685,0.4688,0.4689,0.4689,0.4688,0.4689,0.4689,0.469,0.4688,0.4688,0.4688,0.4688,0,0.4556,0.4561,0.4569,0.4579,0.4586,0.4594,0.4603,0.4606,0.4618,0.4624,0.4634,0.4641,0.4654,0.4664,0.4675,0.4682,0.4687,0.4688,0.4689,0.4687,0.4684,0.4686,0.4685,0.4688,0.4688,0.4688,0.4688,0.4688,0.4552,0.4557,0.4568,0.4577,0.4585,0.4593,0.4599,0.4607,0.4616,0.4627,0.4633,0.4643,0.4653,0.4669,0.4676,0.4684,0.4685,0.4687,0.4687,0.4688,0.4687,0.4683,0.4686,0.4686,0.4686,0.4686,0.4686,0,0.455,0.4558,0.4566,0.4578,0.4586,0.4591,0.4601,0.4607,0.4616,0.4625,0.4634,0.4646,0.4656,0.4667,0.4678,0.4682,0.4685,0.4685,0.4685,0.4686,0.4685,0.4683,0.4682,0.4682,0.4682,0.4682,0.4682,0.4682,0.455,0.4558,0.4565,0.4578,0.4585,0.4595,0.4601,0.4609,0.4617,0.463,0.4638,0.4646,0.4656,0.4668,0.4678,0.4681,0.4684,0.4684,0.4687,0.4686,0.4686,0.4686,0.4685,0.4684,0.4684,0.4688,0.4688,0.4688]}]]